Location: Ferchesar
(52.6477°N, 12.4298°E)
Time: 10:08:35
(UTC+01:00)

Tiros 1 despin weight - Pass Details

Date: 08 December 2021
Orbit: 592 x 641 km, 48.2° (Epoch: 19 January)

Event Time Altitude Azimuth Distance (km) Brightness Sun altitude
Rises 17:27:33 0° 274° (W) 2,827 ? -12.9°
Reaches altitude 10° 17:30:40 10° 251° (WSW) 1,921 ? -13.3°
Maximum altitude 17:33:11 15° 216° (SW) 1,612 ? -13.7°
Drops below altitude 10° 17:35:42 10° 181° (S) 1,919 ? -14.1°
Sets 17:38:48 0° 158° (SSE) 2,822 ? -14.5°
